Regional Weather Roundup
Issued by NWS

Home | Current Version | Previous Version | Graphics & Text | Print | Product List | Glossary On
Versions: 1 2 3 4 5 6 7 8 9 10 11 12 13 14 15 16 17 18 19 20 21 22 23 24 25 26 27 28 29 30 31 32 33 34 35 36 37 38 39 40 41 42 43 44 45 46 47 48 49 50
000
ASUS44 KMEG 221810
RWRTN
TENNESSEE HOURLY STATE WEATHER ROUNDUP
NATIONAL WEATHER SERVICE MEMPHIS TN
100 PM CDT FRI MAY 22 2015

TNZ002-004-019-021-049-052-054-088>092-221900-
WEST TENNESSEE

CITY           SKY/WX    TMP DP  RH WIND       PRES   REMARKS
MEMPHIS INTL   MOSUNNY   70  45  40 CALM      30.28F
NWS MEMPHIS      N/A     69 N/A N/A MISG        N/A
JACKSON        SUNNY     69  45  41 CALM      30.28F
DYERSBURG      SUNNY     66  39  37 CALM      30.29F
PARIS          SUNNY     66  39  37 CALM      30.29F
LEXINGTON      SUNNY     68  41  37 VRB7      30.27S
$$

TNZ008-025-027-028-033-062-065-066-221900-
NORTH MIDDLE TENNESSEE

CITY           SKY/WX    TMP DP  RH WIND       PRES   REMARKS
NASHVILLE      MOSUNNY   71  44  37 NE5       30.28F
CLARKSVILLE    SUNNY     69  40  34 CALM      30.29S
SMYRNA         MOSUNNY   71  42  35 E8        30.29S
COOKEVILLE     SUNNY     68  43  40 VRB3      30.27S
CROSSVILLE     SUNNY     64  40  41 VRB5      30.29S
$$

TNZ061-075-076-078-094-096-097-221900-
SOUTH MIDDLE TENNESSEE

CITY           SKY/WX    TMP DP  RH WIND       PRES   REMARKS
FAYETTEVILLE   SUNNY    N/A N/A N/A MISG      30.26S
TULLAHOMA      SUNNY     66  43  42 NE7       30.28S
WINCHESTER     SUNNY     70  46  43 VRB6      30.26S
MCMINNVILLE    SUNNY     66  48  52 SE5G30    30.27F
COLUMBIA       SUNNY     70  45  40 NE8       30.26S
SHELBYVILLE    SUNNY     70  48  46 VRB5      30.27F
$$

TNZ017-018-042-046-047-221900-
NORTHEAST TENNESSEE

CITY           SKY/WX    TMP DP  RH WIND       PRES   REMARKS
TRI CITIES     MOSUNNY   68  39  34 NW6       30.27F
ELIZABETHTON   CLEAR     66  39  37 W13       30.26F
$$

TNZ012-013-036-069-073-074-221900-
CENTRAL EAST TENNESSEE

CITY           SKY/WX    TMP DP  RH WIND       PRES   REMARKS
KNOXVILLE      MOSUNNY   68  41  37 MISG      30.25F
OAK RIDGE      SUNNY     71  38  29 VRB5      30.27F
GATLINBURG     CLEAR     64  39  39 N6        30.25F
MORRISTOWN     CLEAR     66  45  45 N7        30.27F
$$

TNZ083-085-099-221900-
SOUTHEAST TENNESSEE

CITY           SKY/WX    TMP DP  RH WIND       PRES   REMARKS
CHATTANOOGA    MOSUNNY   71  45  39 N14       30.25F
$$

SKY/WX REPORTED AS FAIR MEANS FEW OR NO CLOUDS BELOW
12 THOUSAND FEET.




USA.gov is the U.S. government's official web portal to all federal, state and local government web resources and services.